Location: Chin
(49.7667°N, 112.4500°W)
Time: 11:00:47
(UTC+00:00)

N. Korean satellite - Pass Details

Date: 06 December 2021
Orbit: 447 x 490 km, 97.3° (Epoch: 27 January)

Event Time Altitude Azimuth Distance (km) Brightness Sun altitude
Rises 13:16:52 0° 8° (N) 2,469 10.1 -17.7°
Reaches altitude 10° 13:18:57 10° 2° (N) 1,589 9.0 -17.3°
Maximum altitude 13:22:13 47° 288° (WNW) 609 6.6 -16.8°
Drops below altitude 10° 13:25:28 10° 214° (SSW) 1,573 9.0 -16.3°
Sets 13:27:31 0° 208° (SSW) 2,442 10.0 -16.0°
